Effective Sunday, March 17, 2024, the National Weather Service National Data Buoy Center will discontinue its Dial-A-Buoy Interactive Voice Response system. For more information, see Service Change Notice 24-06 (PDF).

Station AMAA2 - East Amatuli Island Light, AK Image indicating link to RSS feed of recent meteorological observations for station AMAA2


Conditions at AMAA2 as of
(2:30 am AKST)
1130 GMT on 03/03/2024:
     

Click on the graph icon in the table below to see a time series plot of the last five days of that observation.

5-day plot - Wind Direction Wind Direction (WDIR):ESE ( 120 deg true )
5-day plot - Wind Speed Wind Speed (WSPD): 10 kts
5-day plot - Wind Gust Wind Gust (GST): 12 kts
5-day plot - Atmospheric Pressure Atmospheric Pressure (PRES):30.02 in
5-day plot - Air Temperature Air Temperature (ATMP): 31.1 °F
5-day plot - Dew Point Dew Point (DEWP): 15.1 °F
5-day plot - Wind Chill Wind Chill (CHILL): 21.9 °F
5-day plot - Wind Speed at 10 Meters Wind Speed at 10 meters (WSPD10M): 10 kts
5-day plot - Wind Speed at 20 Meters Wind Speed at 20 meters (WSPD20M): 12 kts
5-day plot -  Wind Speed, Wind Gust and Atmospheric Pressure Combined plot of Wind Speed, Gust, and Air Pressure
Continuous Winds
TIME
(AKST)
5-day plot - Wind Direction WDIR 5-day plot - Wind Speed WSPD
2:30 amSE ( 127 deg ) 9 kts
2:20 amSE ( 133 deg ) 10 kts
2:10 amSSE ( 148 deg ) 11 kts
2:00 amSE ( 137 deg ) 11 kts
1:50 amSE ( 143 deg ) 10 kts
1:40 amSE ( 133 deg ) 10 kts
 
Peak gust during the measurement hour
TIME
(AKST)
5-day plot - Gust Direction GDR 5-day plot - Gust Speed GST
1:52 amSE ( 130 deg ) 15 kts
Previous observations
TIME
(AKST)
5-day plot - Wind Direction
WDIR
 
5-day plot - Wind Speed
WSPD
kts
5-day plot - Wind Gust
GST
kts
5-day plot - Wave Height
WVHT
ft
5-day plot - Dominant Wave Period
DPD
sec
5-day plot - Average Wave Period
APD
sec
5-day plot - Mean Wave Direction
MWD
 
5-day plot - Atmospheric Pressure
PRES
in
5-day plot - Pressure Tendency
PTDY
in
5-day plot - Air Temperature
ATMP
°F
5-day plot - Water Temperature
WTMP
°F
5-day plot - Dew Point
DEWP
°F
5-day plot - Salinity
SAL
psu
5-day plot - Visibility
VIS
nmi
5-day plot - Tide (above MLLW)
TIDE
ft
2024-03-03 02:00 am SE 9 11----30.02+0.03 31.1- 16.0---
2024-03-03 01:30 am SE 12 14----30.01- 31.5- 17.2---
2024-03-03 01:00 amSSE 9 11----30.01+0.03 31.3- 14.9---
2024-03-03 12:30 amSSE 7 9----30.01- 31.6- 15.3---
2024-03-03 12:00 am S 6 7----30.01+0.04 31.1- 12.9---
2024-03-02 11:30 pm SE 8 10----30.00- 31.1- 11.7---
2024-03-02 11:00 pmSSE 6 9----29.99+0.04 30.9- 10.8---
2024-03-02 10:30 pmESE 7 9----29.99- 30.9- 12.4---
2024-03-02 10:00 pm SE 6 8----29.98+0.04 30.6- 8.1---
2024-03-02 09:30 pm E 5 8----29.98- 30.6- 8.1---
2024-03-02 09:00 pmENE 9 11----29.97+0.03 30.6- 8.1---
2024-03-02 08:30 pmENE 8 10----29.96- 30.7- 8.2---
2024-03-02 08:00 pmENE 8 9----29.96+0.06 30.4- 7.9---
2024-03-02 07:30 pm NE 9 10----29.95- 30.7- 8.1---
2024-03-02 07:00 pmNNE 7 8----29.94+0.01 31.1- 8.4---
2024-03-02 06:30 pmWNW 5 8----29.94- 30.4- 7.9---
2024-03-02 06:00 pm NW 10 18----29.94+0.00 29.7- 7.9---
2024-03-02 05:30 pm W 4 6----29.94- 30.2- 7.9---
2024-03-02 05:00 pmNNW 23 27----29.90-0.02 29.5- 8.2---
2024-03-02 04:30 pm N 9 11----29.93- 30.6- 7.9---
2024-03-02 04:00 pmNNW 9 12----29.93-0.02 30.2- 7.7---
2024-03-02 03:30 pmNNW 17 21----29.93- 29.1- 7.3---
2024-03-02 03:00 pmNNW 10 13----29.94+0.01 28.8- 6.6---
2024-03-02 02:30 pm N 15 18----29.93- 29.7- 7.2---
2024-03-02 02:00 pmNNW 20 23----29.92-0.02 29.1- 6.8---
2024-03-02 01:30 pm N 21 27----29.92- 28.4- 6.3---
2024-03-02 01:00 pmNNW 14 21----29.95+0.04 27.1- 5.5---
2024-03-02 12:30 pmWNW 8 14----29.97- 26.2- 8.2---
2024-03-02 12:00 pmNNW 26 31----29.93+0.02 25.3- 7.3---
2024-03-02 11:30 am NW 11 22----29.96- 25.2- 7.7---
2024-03-02 11:00 am NW 20 30----29.94+0.01 24.3- 8.6---
2024-03-02 10:30 amNNW 22 35----29.92- 23.9- 7.5---
2024-03-02 10:00 amNNW 21 39----29.91+0.01 24.3- 7.0---
2024-03-02 09:30 amNNW 22 33----29.91- 24.4- 7.7---
2024-03-02 09:00 am NW 18 32----29.91+0.04 24.3- 6.4---
2024-03-02 08:30 amNNW 28 33----29.89- 25.2- 4.6---
2024-03-02 08:00 amNNW 16 25----29.93+0.06 24.6- 8.1---
2024-03-02 07:30 amNNW 21 25----29.91- 25.7- 4.5---
2024-03-02 07:00 amNNW 26 31----29.89+0.01 26.1- 6.8---
2024-03-02 06:30 amNNW 25 30----29.90- 25.2- 3.9---
2024-03-02 06:00 amNNW 28 34----29.88-0.01 24.3- 5.0---
2024-03-02 05:30 amNNW 29 35----29.88- 24.8- 6.4---
2024-03-02 05:00 amNNW 30 35----29.88+0.01 25.2- 6.4---
2024-03-02 04:30 amNNW 30 36----29.88- 24.6- 7.3---
2024-03-02 04:00 amNNW 29 37----29.88+0.00 25.7- 5.5---
2024-03-02 03:30 amNNW 30 37----29.88- 22.8- 6.8---
2024-03-02 03:00 amNNW 24 34----29.89+0.02 22.8- 6.1---
2024-03-02 02:30 amNNW 29 39----29.88- 22.6- 8.1---
2024-03-02 02:00 amNNW 29 38----29.87-0.01 22.8- 8.8---